Weather History for LGRX - August, 2013

Change the Weather History Date:

Monday, August 19, 2013

  Actual Average Record
Temperature  
Mean Temperature 83 °F -  
Max Temperature 95 °F 82 °F 102 °F (2006)
Min Temperature 71 °F 64 °F 62 °F (2005)
Cooling Degree Days 18    
Growing Degree Days 33 (Base 50)    
Moisture  
Dew Point 59 °F    
Average Humidity 46    
Maximum Humidity 78    
Minimum Humidity 22    
Precipitation  
Precipitation 0.00 in - - ()
Sea Level Pressure  
Sea Level Pressure 29.91 in    
Wind  
Wind Speed 3 mph ()    
Max Wind Speed 9 mph    
Max Gust Speed -    
Visibility 6.2 miles    
Events      
Averages and records for this station are not official NWS values.
T = Trace of Precipitation, MM = Missing Value Source: Averaged Metar Reports

Daily Weather History Graph

Daily Weather History Graph

Search for Another Location

Airport or City:

Trip Planner

Search our weather history database for the weather conditions in past years. The results will help you decide how hot, cold, wet, or windy it might be!

Date:

Astronomy

Aug. 19, 2013 Rise Set
Actual Time 6:52 AM EEST 8:22 PM EEST
Civil Twilight 6:24 AM EEST 8:50 PM EEST
Nautical Twilight 5:51 AM EEST 9:23 PM EEST
Astronomical Twilight 5:15 AM EEST 9:58 PM EEST
Moon 7:00 PM EEST (8/19) 4:50 AM EEST (8/19)
Length of Visible Light 14h 25m
Length of Day
13h 29m
Waxing Gibbous, 96% of the Moon is Illuminated
Aug 19
Waxing Gibbous
Aug 21
Full
Aug 28
Last Quarter
Sep 5
New
Sep 12
First Quarter

Hourly Weather History & Observations

Time (EEST) Temp. Heat Index Dew Point Humidity Pressure Visibility Wind Dir Wind Speed Gust Speed Precip Events Conditions
2:50 AM 78.8 °F - 64.4 °F 61% 29.92 in - Variable 3.5 mph - N/A   Clear
3:50 AM 75.2 °F - 64.4 °F 69% 29.92 in - Variable 3.5 mph - N/A   Clear
4:50 AM 75.2 °F - 64.4 °F 69% 29.92 in - Calm Calm - N/A   Clear
5:50 AM 71.6 °F - 64.4 °F 78% 29.92 in - Calm Calm - N/A   Clear
6:20 AM 71.6 °F - 64.4 °F 78% 29.92 in - Calm Calm - N/A   Clear
6:50 AM 71.6 °F - 64.4 °F 78% 29.92 in - Calm Calm - N/A   Clear
7:20 AM 71.6 °F - 62.6 °F 73% 29.95 in - Calm Calm - N/A   Clear
7:50 AM 71.6 °F - 64.4 °F 78% 29.95 in - Calm Calm - N/A   Clear
8:20 AM 77.0 °F - 64.4 °F 65% 29.95 in - Calm Calm - N/A   Clear
8:50 AM 78.8 °F - 64.4 °F 61% 29.95 in - Calm Calm - N/A   Clear
9:20 AM 84.2 °F 84.4 °F 60.8 °F 45% 29.95 in - Calm Calm - N/A   Clear
9:50 AM 86.0 °F 84.9 °F 57.2 °F 37% 29.95 in - Calm Calm - N/A   Clear
10:20 AM 87.8 °F 86.1 °F 55.4 °F 33% 29.95 in - Calm Calm - N/A   Clear
10:50 AM 87.8 °F 86.1 °F 55.4 °F 33% 29.95 in - Variable 3.5 mph - N/A   Clear
11:20 AM 89.6 °F - 51.8 °F 27% 29.95 in - North 5.8 mph - N/A   Clear
11:50 AM 89.6 °F - 51.8 °F 27% 29.95 in - North 5.8 mph - N/A   Clear
12:20 PM 91.4 °F - 51.8 °F 26% 29.95 in 6.2 mi North 5.8 mph - N/A   Partly Cloudy
12:50 PM 91.4 °F - 50.0 °F 24% 29.95 in 6.2 mi NNW 5.8 mph - N/A   Partly Cloudy
1:20 PM 93.2 °F - 50.0 °F 23% 29.95 in 6.2 mi North 4.6 mph - N/A   Partly Cloudy
1:50 PM 93.2 °F - 50.0 °F 23% 29.92 in 6.2 mi North 9.2 mph - N/A   Partly Cloudy
2:20 PM 93.2 °F - 50.0 °F 23% 29.92 in 6.2 mi NNW 9.2 mph - N/A   Partly Cloudy
2:50 PM 93.2 °F - 50.0 °F 23% 29.92 in 6.2 mi NNE 9.2 mph - N/A   Partly Cloudy
3:20 PM 95.0 °F - 50.0 °F 22% 29.89 in 6.2 mi North 9.2 mph - N/A   Partly Cloudy
3:50 PM 95.0 °F - 50.0 °F 22% 29.89 in 6.2 mi NNW 9.2 mph - N/A   Partly Cloudy
4:20 PM 95.0 °F - 50.0 °F 22% 29.89 in 6.2 mi NNW 9.2 mph - N/A   Partly Cloudy
4:50 PM 93.2 °F - 51.8 °F 24% 29.89 in 6.2 mi NNW 9.2 mph - N/A   Partly Cloudy
5:20 PM 93.2 °F - 51.8 °F 24% 29.89 in 6.2 mi NNW 9.2 mph - N/A   Partly Cloudy
5:50 PM 89.6 °F 89.5 °F 60.8 °F 38% 29.86 in 6.2 mi West 9.2 mph - N/A   Partly Cloudy
6:20 PM 89.6 °F 88.9 °F 59.0 °F 36% 29.86 in 6.2 mi West 9.2 mph - N/A   Partly Cloudy
6:50 PM 91.4 °F 89.1 °F 53.6 °F 28% 29.86 in 6.2 mi West 6.9 mph - N/A   Partly Cloudy
7:20 PM 89.6 °F 91.1 °F 64.4 °F 43% 29.86 in 6.2 mi West 6.9 mph - N/A   Partly Cloudy
7:50 PM 86.0 °F 91.8 °F 71.6 °F 62% 29.86 in - NW 5.8 mph - N/A   Clear
8:20 PM 84.2 °F 89.6 °F 71.6 °F 66% 29.86 in - North 6.9 mph - N/A   Clear
8:50 PM 82.4 °F 87.2 °F 71.6 °F 70% 29.89 in - NNW 4.6 mph - N/A   Clear
9:50 PM 80.6 °F 83.2 °F 68.0 °F 65% 29.89 in - Variable 3.5 mph - N/A   Clear
10:50 PM 78.8 °F - 68.0 °F 69% 29.89 in - Calm Calm - N/A   Clear
11:50 PM 78.8 °F - 64.4 °F 61% 29.89 in - Variable 3.5 mph - N/A   Clear